Starlink 6379

operational
NORAD ID: 57343 Int'l Des: 2023-099 Owner: SPXS Country: US Constellation: starlink
LEOCIRCULAR

About Starlink 6379

Description loading...

Live Position

Loading 3D Globe...

Upcoming Passes

Altitude History

Altitude vs Time

uPlot chart will show altitude changes over time

Two-Line Element Set

1 57343U 23099R 25305.49562950 .00001842 00000-0 15139-3 0 9997
2 57343 43.0049 225.4753 0001579 265.8146 94.2516 15.02548014126833
Epoch: Nov 1, 2025 • Age: 23 hours

Current Status

Altitude 563.3 km
Velocity 7.59 km/s
Sub-Earth Point 43.03°N, 114.07°E
Launch Date Jul 16, 2023
Age 2.2 years
Type internet

Technical Details

Classification Payload
Mass 305.00 kg
Dry Mass 290.00 kg
Total Mass 305.00 kg
Length 0.20 m
Diameter 2.80 m
Span 9.00 m
Shape Box + pan
Manufacturer SPXS
Bus Type Starlink
Phase Status In Orbit
Owner/State SPXS/US

Large Constellations

Loading constellations...